Weather History for Pensacola NAS, FL

Change the Weather History Date:

Friday, October 19, 2012

  Actual Average Record
Temperature  
Mean Temperature 65 °F -  
Max Temperature 78 °F 76 °F 87 °F (2000)
Min Temperature 51 °F 57 °F 44 °F (1996)
Growing Degree Days 15 (Base 50)    
Moisture  
Dew Point 47 °F    
Average Humidity 56    
Maximum Humidity 89    
Minimum Humidity 26    
Precipitation  
Precipitation 0.00 in - - ()
Sea Level Pressure  
Sea Level Pressure 29.89 in    
Wind  
Wind Speed 5 mph (NW)    
Max Wind Speed 14 mph    
Max Gust Speed 18 mph    
Visibility 10 miles    
Events      
Averages and records for this station are not official NWS values.
T = Trace of Precipitation, MM = Missing Value Source: NWS Daily Summary

Daily Weather History Graph

Daily Weather History Graph

Search for Another Location

Airport:

Trip Planner

Search our weather history database for the weather conditions in past years. The results will help you decide how hot, cold, wet, or windy it might be!

Date:

Astronomy

Oct. 19, 2012 Rise Set
Actual Time 6:54 AM CDT 6:13 PM CDT
Civil Twilight 6:30 AM CDT 6:37 PM CDT
Nautical Twilight 6:02 AM CDT 7:05 PM CDT
Astronomical Twilight 5:34 AM CDT 7:33 PM CDT
Moon 11:22 AM CDT (10/19) 10:04 PM CDT (10/19)
Length of Visible Light 12h 07m
Length of Day
11h 18m
Waxing Crescent, 24% of the Moon is Illuminated
Oct 19
Waxing Crescent
Oct 21
First Quarter
Oct 29
Full
Nov 6
Last Quarter
Nov 13
New

Hourly Weather History & Observations

Time (CDT) Temp. Dew Point Humidity Pressure Visibility Wind Dir Wind Speed Gust Speed Precip Events Conditions
12:56 AM 62.1 °F 52.0 °F 70% 29.88 in 10.0 mi NNW 3.5 mph - N/A   Clear
1:56 AM 60.1 °F 48.9 °F 67% 29.88 in 10.0 mi NNW 4.6 mph - N/A   Clear
2:56 AM 60.1 °F 46.9 °F 62% 29.87 in 10.0 mi North 6.9 mph - N/A   Clear
3:56 AM 57.9 °F 46.0 °F 65% 29.86 in 10.0 mi NNW 5.8 mph - N/A   Clear
4:56 AM 57.0 °F 45.0 °F 64% 29.87 in 10.0 mi North 4.6 mph - N/A   Clear
5:56 AM 55.9 °F 45.0 °F 67% 29.88 in 10.0 mi North 4.6 mph - N/A   Clear
6:00 AM 55.4 °F 44.6 °F 67% 29.87 in 10.0 mi North 3.5 mph - N/A   Clear
6:56 AM 55.0 °F 46.0 °F 72% 29.90 in 10.0 mi Calm Calm - N/A   Partly Cloudy
7:56 AM 59.0 °F 51.1 °F 75% 29.91 in 10.0 mi NNW 5.8 mph - N/A   Partly Cloudy
8:56 AM 66.0 °F 46.9 °F 50% 29.94 in 10.0 mi North 4.6 mph - N/A   Clear
9:56 AM 71.1 °F 46.9 °F 42% 29.95 in 10.0 mi NNW 6.9 mph - N/A   Clear
10:56 AM 73.0 °F 46.0 °F 38% 29.95 in 10.0 mi NW 5.8 mph - N/A   Clear
11:56 AM 75.9 °F 44.1 °F 32% 29.93 in 10.0 mi NNW 6.9 mph - N/A   Clear
12:56 PM 77.0 °F 44.1 °F 31% 29.90 in 10.0 mi Calm Calm - N/A   Clear
1:56 PM 75.9 °F 48.0 °F 37% 29.88 in 10.0 mi South 13.8 mph - N/A   Clear
2:56 PM 77.0 °F 39.9 °F 26% 29.86 in 10.0 mi WSW 11.5 mph - N/A   Clear
3:56 PM 75.9 °F 46.9 °F 36% 29.85 in 10.0 mi SW 10.4 mph 18.4 mph N/A   Clear
4:56 PM 73.9 °F 48.0 °F 40% 29.85 in 10.0 mi West 4.6 mph - N/A   Clear
5:56 PM 70.0 °F 48.0 °F 46% 29.85 in 10.0 mi West 3.5 mph - N/A   Clear
6:56 PM 66.9 °F 48.0 °F 51% 29.85 in 10.0 mi WSW 4.6 mph - N/A   Clear
7:56 PM 64.9 °F 48.9 °F 56% 29.88 in 10.0 mi West 3.5 mph - N/A   Clear
8:56 PM 64.0 °F 48.0 °F 56% 29.90 in 10.0 mi West 3.5 mph - N/A   Clear
9:56 PM 57.0 °F 48.9 °F 74% 29.90 in 10.0 mi Calm Calm - N/A   Clear
10:56 PM 53.1 °F 48.9 °F 86% 29.91 in 10.0 mi Calm Calm - N/A   Clear
11:56 PM 51.1 °F 48.0 °F 89% 29.91 in 10.0 mi West 3.5 mph - N/A   Clear